Total_Precipitation_Accumulation
0.30 0.32 0.31 0.25 0.18 0.27 0.40 0.47 0.47 0.48 0.43 0.37 0.32 0.25 0.25 0.32 0.40 0.46 0.45 0.44 0.52 0.56 0.55 0.55 0.44 0.32 0.27 0.21 0.19 0.19 0.17 0.17 0.15 0.13 0.14 0.12 0.10 0.13 0.19 0.25 0.29 0.30 0.30
0.56 0.58 0.50 0.43 0.34 0.38 0.43 0.55 0.56 0.61 0.50 0.49 0.31 0.29 0.32 0.31 0.38 0.43 0.43 0.61 0.70 0.56 0.46 0.45 0.42 0.35 0.28 0.22 0.18 0.16 0.14 0.12 0.10 0.08 0.10 0.08 0.05 0.06 0.10 0.18 0.23 0.22 0.17
0.91 0.86 0.69 0.49 0.49 0.65 0.73 0.63 0.56 0.68 0.46 0.42 0.38 0.46 0.49 0.40 0.34 0.35 0.36 0.44 0.55 0.48 0.38 0.32 0.36 0.36 0.34 0.31 0.27 0.25 0.19 0.11 0.07 0.05 0.05 0.05 0.04 0.04 0.03 0.08 0.13 0.13 0.10
0.84 0.84 0.60 0.37 0.50 0.75 0.83 0.76 0.71 0.71 0.60 0.61 0.61 0.65 0.64 0.52 0.36 0.30 0.24 0.26 0.29 0.26 0.31 0.38 0.35 0.32 0.38 0.44 0.46 0.47 0.37 0.24 0.12 0.06 0.04 0.04 0.04 0.03 0.01 0.02 0.06 0.07 0.05
0.49 0.55 0.34 0.28 0.47 0.64 0.68 0.67 0.70 0.77 0.66 0.69 0.76 0.70 0.55 0.42 0.31 0.24 0.21 0.18 0.19 0.19 0.18 0.28 0.25 0.29 0.43 0.56 0.64 0.66 0.59 0.46 0.32 0.19 0.10 0.05 0.03 0.02 0.01 0.00 0.02 0.04 0.05
0.25 0.36 0.30 0.27 0.45 0.54 0.51 0.68 0.75 0.82 0.69 0.64 0.66 0.45 0.33 0.22 0.20 0.14 0.12 0.11 0.11 0.11 0.12 0.15 0.26 0.27 0.41 0.55 0.65 0.73 0.79 0.64 0.43 0.31 0.23 0.15 0.10 0.06 0.03 0.01 0.01 0.03 0.04
0.19 0.33 0.32 0.32 0.39 0.43 0.41 0.56 0.67 0.68 0.51 0.71 0.79 0.37 0.17 0.10 0.10 0.08 0.07 0.07 0.07 0.10 0.15 0.18 0.23 0.29 0.46 0.54 0.66 0.74 0.90 0.83 0.58 0.41 0.34 0.28 0.23 0.15 0.08 0.04 0.02 0.02 0.01
0.19 0.24 0.25 0.26 0.30 0.34 0.34 0.39 0.48 0.52 0.44 0.70 0.79 0.64 0.33 0.16 0.10 0.06 0.09 0.10 0.12 0.14 0.18 0.23 0.33 0.43 0.54 0.73 0.74 0.63 0.68 0.83 0.76 0.61 0.54 0.41 0.32 0.24 0.18 0.12 0.06 0.04 0.02
0.17 0.17 0.17 0.21 0.26 0.28 0.31 0.36 0.47 0.58 0.49 0.54 0.74 0.84 0.58 0.29 0.24 0.17 0.19 0.24 0.26 0.31 0.34 0.42 0.52 0.59 0.66 0.77 0.77 0.74 0.62 0.68 0.81 0.91 0.82 0.61 0.40 0.34 0.32 0.31 0.24 0.13 0.08
0.11 0.10 0.13 0.23 0.30 0.35 0.40 0.39 0.44 0.52 0.54 0.47 0.54 0.68 0.71 0.67 0.55 0.30 0.21 0.23 0.30 0.34 0.38 0.44 0.49 0.59 0.63 0.75 0.98 1.04 0.93 0.77 0.69 0.81 0.87 0.82 0.66 0.46 0.36 0.38 0.50 0.46 0.29
0.10 0.09 0.08 0.13 0.24 0.32 0.36 0.37 0.39 0.44 0.50 0.49 0.47 0.51 0.61 0.71 0.68 0.52 0.29 0.21 0.28 0.31 0.39 0.46 0.52 0.57 0.61 0.74 1.01 1.10 1.12 0.89 0.74 0.69 0.73 0.72 0.65 0.55 0.46 0.51 0.77 1.01 0.91
0.13 0.11 0.09 0.11 0.14 0.17 0.20 0.26 0.30 0.34 0.38 0.41 0.44 0.47 0.51 0.54 0.58 0.66 0.52 0.40 0.36 0.37 0.47 0.55 0.65 0.71 0.71 0.73 0.73 0.80 0.78 0.78 0.70 0.60 0.51 0.45 0.45 0.49 0.54 0.72 0.99 1.26 1.39
0.18 0.18 0.16 0.18 0.21 0.22 0.21 0.23 0.27 0.31 0.35 0.39 0.41 0.44 0.48 0.51 0.59 0.68 0.64 0.52 0.49 0.56 0.66 0.71 0.67 0.70 0.68 0.78 0.71 0.57 0.46 0.46 0.41 0.36 0.30 0.29 0.32 0.38 0.46 0.54 0.67 0.82 0.98
0.22 0.26 0.29 0.29 0.26 0.27 0.28 0.33 0.37 0.39 0.40 0.41 0.39 0.47 0.51 0.51 0.60 0.66 0.69 0.69 0.62 0.68 0.81 0.71 0.52 0.50 0.51 0.53 0.47 0.41 0.46 0.35 0.26 0.20 0.15 0.14 0.14 0.16 0.22 0.32 0.44 0.54 0.63
0.20 0.21 0.26 0.35 0.33 0.31 0.34 0.40 0.42 0.43 0.45 0.49 0.51 0.55 0.58 0.57 0.58 0.62 0.70 0.74 0.71 0.69 0.78 0.68 0.50 0.45 0.43 0.37 0.33 0.35 0.41 0.41 0.26 0.14 0.09 0.07 0.08 0.10 0.11 0.12 0.17 0.24 0.34
0.19 0.18 0.21 0.27 0.28 0.28 0.34 0.44 0.49 0.51 0.56 0.61 0.58 0.58 0.64 0.64 0.62 0.64 0.68 0.72 0.76 0.80 0.75 0.57 0.45 0.40 0.40 0.31 0.27 0.26 0.26 0.30 0.20 0.12 0.07 0.05 0.05 0.06 0.07 0.09 0.11 0.12 0.15
0.16 0.15 0.15 0.16 0.16 0.17 0.22 0.35 0.53 0.61 0.67 0.67 0.65 0.67 0.65 0.66 0.62 0.57 0.61 0.65 0.71 0.76 0.61 0.43 0.42 0.43 0.44 0.36 0.28 0.24 0.18 0.17 0.18 0.14 0.07 0.06 0.05 0.04 0.06 0.08 0.08 0.08 0.09
0.16 0.14 0.12 0.11 0.10 0.11 0.18 0.31 0.45 0.57 0.67 0.75 0.72 0.68 0.57 0.51 0.51 0.50 0.54 0.58 0.59 0.63 0.51 0.38 0.34 0.35 0.37 0.35 0.30 0.24 0.17 0.12 0.14 0.17 0.10 0.06 0.06 0.06 0.08 0.07 0.05 0.06 0.08
0.21 0.18 0.15 0.14 0.18 0.24 0.30 0.38 0.42 0.51 0.62 0.65 0.63 0.55 0.46 0.43 0.43 0.45 0.45 0.46 0.45 0.44 0.41 0.32 0.26 0.27 0.30 0.28 0.24 0.21 0.18 0.17 0.17 0.15 0.11 0.09 0.09 0.10 0.13 0.11 0.06 0.06 0.09
0.19 0.17 0.17 0.20 0.26 0.33 0.37 0.37 0.38 0.43 0.46 0.49 0.47 0.40 0.34 0.32 0.32 0.32 0.32 0.30 0.30 0.30 0.26 0.21 0.18 0.19 0.22 0.26 0.20 0.17 0.17 0.17 0.18 0.16 0.15 0.19 0.23 0.21 0.20 0.16 0.10 0.08 0.08
0.10 0.13 0.17 0.21 0.26 0.30 0.30 0.33 0.35 0.32 0.36 0.34 0.29 0.26 0.21 0.19 0.21 0.22 0.20 0.18 0.18 0.20 0.19 0.18 0.17 0.17 0.19 0.24 0.21 0.16 0.15 0.18 0.19 0.18 0.20 0.25 0.28 0.26 0.23 0.20 0.15 0.09 0.06
0.06 0.10 0.13 0.16 0.18 0.19 0.23 0.24 0.22 0.20 0.21 0.24 0.23 0.19 0.13 0.12 0.12 0.14 0.14 0.13 0.12 0.14 0.16 0.18 0.18 0.18 0.19 0.19 0.18 0.15 0.13 0.14 0.14 0.19 0.31 0.34 0.26 0.28 0.46 0.47 0.30 0.12 0.04
0.07 0.10 0.12 0.13 0.14 0.16 0.12 0.09 0.08 0.11 0.15 0.20 0.22 0.20 0.13 0.08 0.07 0.07 0.08 0.06 0.07 0.09 0.12 0.16 0.16 0.16 0.15 0.14 0.13 0.14 0.17 0.17 0.13 0.10 0.13 0.12 0.09 0.18 0.49 0.67 0.40 0.16 0.09
0.09 0.13 0.14 0.13 0.15 0.16 0.11 0.07 0.05 0.07 0.12 0.17 0.19 0.18 0.14 0.09 0.08 0.05 0.05 0.05 0.05 0.06 0.09 0.12 0.12 0.12 0.12 0.11 0.11 0.13 0.16 0.16 0.17 0.11 0.07 0.07 0.07 0.11 0.17 0.27 0.29 0.16 0.09
0.16 0.17 0.17 0.16 0.18 0.19 0.13 0.08 0.07 0.10 0.14 0.17 0.19 0.18 0.14 0.09 0.06 0.04 0.04 0.04 0.04 0.06 0.09 0.12 0.12 0.11 0.10 0.08 0.07 0.06 0.07 0.07 0.10 0.10 0.06 0.09 0.09 0.10 0.11 0.12 0.18 0.22 0.16
0.26 0.26 0.24 0.21 0.21 0.24 0.20 0.13 0.11 0.14 0.19 0.21 0.22 0.20 0.16 0.11 0.05 0.03 0.05 0.04 0.03 0.03 0.05 0.06 0.07 0.08 0.07 0.07 0.06 0.04 0.05 0.05 0.05 0.05 0.04 0.06 0.10 0.09 0.10 0.10 0.09 0.14 0.21